Appleton, MN

12:48 AM CST on November 13, 2019 (GMT -0600)
Appleton Municipal

Weather History for KAQP - August, 2019

Change the Weather History Date:

Monday, August 19, 2019

  Actual Average Record
Temperature  
Mean Temperature 68 °F -  
Max Temperature 82 °F 77 °F 96 °F (1998)
Min Temperature 55 °F 55 °F 37 °F (2004)
Cooling Degree Days 4    
Growing Degree Days 18 (Base 50)    
Moisture  
Dew Point 59 °F    
Average Humidity 72    
Maximum Humidity 94    
Minimum Humidity 54    
Precipitation  
Precipitation 0.00 in - - ()
Sea Level Pressure  
Sea Level Pressure 29.94 in    
Wind  
Wind Speed 1 mph (SSE)    
Max Wind Speed 12 mph    
Max Gust Speed 16 mph    
Visibility 10 miles    
Events      
Averages and records for this station are not official NWS values.
T = Trace of Precipitation, MM = Missing Value Source: NWS Daily Summary

Daily Weather History Graph

Daily Weather History Graph

Search for Another Location

Airport or City:

Astronomy

Aug. 19, 2019 Rise Set
Actual Time 6:29 AM CDT 8:24 PM CDT
Civil Twilight 5:58 AM CDT 8:56 PM CDT
Nautical Twilight 5:19 AM CDT 9:34 PM CDT
Astronomical Twilight 4:36 AM CDT 10:17 PM CDT
Moon 10:35 PM CDT (8/19) 10:21 AM CDT (8/19)
Length of Visible Light 14h 58m
Length of Day
13h 54m
Waning Gibbous, 85% of the Moon is Illuminated
Aug 19
Waning Gibbous
Aug 23
Last Quarter
Aug 30
New
Sep 5
First Quarter
Sep 13
Full

Hourly Weather History & Observations

Time (CDT) Temp. Heat Index Dew Point Humidity Pressure Visibility Wind Dir Wind Speed Gust Speed Precip Events Conditions
12:11 AM 55.4 °F - 53.6 °F 94% 29.95 in 10.0 mi Calm Calm - N/A   Clear
12:33 AM 57.2 °F - 53.6 °F 88% 29.95 in 10.0 mi Calm Calm - N/A   Clear
12:53 AM 57.2 °F - 51.8 °F 82% 29.95 in 10.0 mi Calm Calm - N/A   Clear
1:11 AM 55.4 °F - 51.8 °F 88% 29.95 in 10.0 mi Calm Calm - N/A   Clear
1:31 AM 55.4 °F - 51.8 °F 88% 29.95 in 10.0 mi Calm Calm - N/A   Clear
1:51 AM 57.2 °F - 53.6 °F 88% 29.95 in 10.0 mi Calm Calm - N/A   Clear
2:13 AM 57.2 °F - 53.6 °F 88% 29.94 in 10.0 mi Calm Calm - N/A   Clear
2:31 AM 57.2 °F - 53.6 °F 88% 29.95 in 10.0 mi Calm Calm - N/A   Clear
2:54 AM 55.4 °F - 51.8 °F 88% 29.94 in 10.0 mi Calm Calm - N/A   Clear
3:11 AM 55.4 °F - 51.8 °F 88% 29.94 in 10.0 mi Calm Calm - N/A   Clear
3:33 AM 55.4 °F - 51.8 °F 88% 29.95 in 10.0 mi Calm Calm - N/A   Clear
3:53 AM 55.4 °F - 53.6 °F 94% 29.95 in 10.0 mi Calm Calm - N/A   Clear
4:13 AM 55.4 °F - 51.8 °F 88% 29.95 in 10.0 mi Calm Calm - N/A   Clear
4:31 AM 55.4 °F - 53.6 °F 94% 29.95 in 10.0 mi Calm Calm - N/A   Clear
5:31 AM 55.4 °F - 51.8 °F 88% 29.95 in 10.0 mi Calm Calm - N/A   Clear
5:53 AM 55.4 °F - 51.8 °F 88% 29.95 in 10.0 mi Calm Calm - N/A   Clear
6:11 AM 55.4 °F - 51.8 °F 88% 29.95 in 10.0 mi Calm Calm - N/A   Clear
6:32 AM 55.4 °F - 51.8 °F 88% 29.96 in 10.0 mi Calm Calm - N/A   Clear
6:53 AM 55.4 °F - 51.8 °F 88% 29.96 in 10.0 mi Calm Calm - N/A   Clear
7:11 AM 57.2 °F - 53.6 °F 88% 29.96 in 10.0 mi Calm Calm - N/A   Clear
7:31 AM 57.2 °F - 53.6 °F 88% 29.97 in 10.0 mi Calm Calm - N/A   Clear
7:51 AM 59.0 °F - 53.6 °F 82% 29.97 in 10.0 mi Calm Calm - N/A   Clear
8:11 AM 60.8 °F - 55.4 °F 82% 29.97 in 10.0 mi Calm Calm - N/A   Clear
8:32 AM 62.6 °F - 55.4 °F 77% 29.97 in 10.0 mi Calm Calm - N/A   Clear
8:50 AM 64.4 °F - 57.2 °F 77% 29.96 in 10.0 mi Calm Calm - N/A   Clear
9:13 AM 66.2 °F - 55.4 °F 68% 29.96 in 10.0 mi Calm Calm - N/A   Clear
9:31 AM 68.0 °F - 57.2 °F 68% 29.96 in 10.0 mi Calm Calm - N/A   Clear
9:51 AM 69.8 °F - 57.2 °F 64% 29.96 in 10.0 mi Calm Calm - N/A   Clear
10:13 AM 71.6 °F - 57.2 °F 60% 29.97 in 10.0 mi Calm Calm - N/A   Clear
10:31 AM 71.6 °F - 57.2 °F 60% 29.97 in 10.0 mi Calm Calm - N/A   Clear
10:51 AM 73.4 °F - 59.0 °F 61% 29.97 in 10.0 mi Calm Calm - N/A   Clear
11:11 AM 73.4 °F - 60.8 °F 65% 29.97 in 10.0 mi Calm Calm - N/A   Clear
11:31 AM 75.2 °F - 60.8 °F 61% 29.97 in 10.0 mi Calm Calm - N/A   Clear
11:53 AM 75.2 °F - 62.6 °F 65% 29.96 in 10.0 mi South 5.8 mph - N/A   Clear
12:11 PM 77.0 °F - 62.6 °F 61% 29.96 in 10.0 mi SSW 6.9 mph - N/A   Clear
12:30 PM 77.0 °F - 62.6 °F 61% 29.96 in 10.0 mi South 6.9 mph - N/A   Clear
12:52 PM 78.8 °F - 62.6 °F 57% 29.96 in 10.0 mi SSW 4.6 mph - N/A   Clear
1:11 PM 78.8 °F - 62.6 °F 57% 29.95 in 10.0 mi Calm Calm - N/A   Clear
1:33 PM 80.6 °F 81.8 °F 62.6 °F 54% 29.95 in 10.0 mi SSW 3.5 mph - N/A   Clear
1:51 PM 80.6 °F 81.8 °F 62.6 °F 54% 29.95 in 10.0 mi Calm Calm - N/A   Clear
2:13 PM 80.6 °F 82.3 °F 64.4 °F 58% 29.95 in 10.0 mi Calm Calm - N/A   Clear
2:51 PM 82.4 °F 83.9 °F 64.4 °F 54% 29.93 in 10.0 mi Calm Calm - N/A   Clear
3:13 PM 82.4 °F 83.9 °F 64.4 °F 54% 29.92 in 10.0 mi Calm Calm - N/A   Clear
3:33 PM 82.4 °F 83.9 °F 64.4 °F 54% 29.92 in 10.0 mi Calm Calm - N/A   Clear
3:51 PM 82.4 °F 83.9 °F 64.4 °F 54% 29.92 in 10.0 mi Calm Calm - N/A   Clear
4:11 PM 82.4 °F 83.9 °F 64.4 °F 54% 29.92 in 10.0 mi South 10.4 mph 16.1 mph N/A   Clear
4:31 PM 82.4 °F 83.9 °F 64.4 °F 54% 29.91 in 10.0 mi South 10.4 mph - N/A   Clear
4:51 PM 82.4 °F 83.9 °F 64.4 °F 54% 29.91 in 10.0 mi South 11.5 mph - N/A   Clear
5:12 PM 82.4 °F 83.9 °F 64.4 °F 54% 29.91 in 10.0 mi South 11.5 mph - N/A   Clear
5:31 PM 82.4 °F 83.9 °F 64.4 °F 54% 29.90 in 10.0 mi SSE 10.4 mph - N/A   Clear
5:54 PM 82.4 °F 83.9 °F 64.4 °F 54% 29.90 in 10.0 mi SSE 5.8 mph 9.2 mph N/A   Clear
6:13 PM 82.4 °F 83.9 °F 64.4 °F 54% 29.91 in 10.0 mi South 6.9 mph 16.1 mph N/A   Clear
7:11 PM 80.6 °F 82.3 °F 64.4 °F 58% 29.90 in 10.0 mi SSE 4.6 mph - N/A   Clear
7:30 PM 78.8 °F - 64.4 °F 61% 29.91 in 10.0 mi SE 4.6 mph - N/A   Clear
7:52 PM 78.8 °F - 66.2 °F 65% 29.91 in 10.0 mi SE 4.6 mph - N/A   Clear
8:14 PM 77.0 °F - 66.2 °F 69% 29.91 in 10.0 mi SSE 5.8 mph - N/A   Clear
8:31 PM 75.2 °F - 66.2 °F 73% 29.91 in 10.0 mi SSE 4.6 mph - N/A   Clear
8:54 PM 73.4 °F - 66.2 °F 78% 29.92 in 10.0 mi SSE 4.6 mph - N/A   Clear
9:11 PM 73.4 °F - 66.2 °F 78% 29.92 in 10.0 mi SE 3.5 mph - N/A   Clear
9:30 PM 73.4 °F - 66.2 °F 78% 29.92 in 10.0 mi SSE 5.8 mph - N/A   Clear
9:56 PM 73.4 °F - 64.4 °F 73% 29.93 in 10.0 mi SSE 5.8 mph - N/A   Clear
11:11 PM 71.6 °F - 66.2 °F 83% 29.92 in 10.0 mi SE 9.2 mph - N/A   Clear
11:32 PM 71.6 °F - 66.2 °F 83% 29.92 in 10.0 mi SE 6.9 mph - N/A   Clear
11:51 PM 71.6 °F - 66.2 °F 83% 29.92 in 10.0 mi SE 6.9 mph - N/A   Clear